Time,TemperatureF,DewpointF,PressureIn,WindDirection,WindDirectionDegrees,WindSpeedMPH,WindSpeedGustMPH,Humidity,HourlyPrecipIn,Conditions,Clouds,dailyrainin,SolarRadiationWatts/m^2,SoftwareType,DateUTC
2013-03-03 00:02:00,18.0,16.0,-100.00,NW,316,6.0,10.0,90,0.00,,,0.18,0.000000,,2013-03-03 05:02:00,
2013-03-03 00:32:00,17.0,14.0,-100.00,NW,316,5.0,11.0,89,0.00,,,0.18,0.000000,,2013-03-03 05:32:00,
2013-03-03 00:42:00,17.0,14.0,-100.00,NW,316,5.0,11.0,89,0.00,,,0.18,0.000000,,2013-03-03 05:42:00,
2013-03-03 00:52:00,17.0,14.0,-100.00,NW,316,5.0,11.0,89,0.00,,,0.18,0.000000,,2013-03-03 05:52:00,
2013-03-03 01:02:00,17.0,14.0,-100.00,NW,316,5.0,11.0,89,0.00,,,0.18,0.000000,,2013-03-03 06:02:00,
2013-03-03 01:32:00,16.0,13.0,-100.00,NW,325,5.0,10.0,89,0.00,,,0.18,0.000000,,2013-03-03 06:32:00,
2013-03-03 01:42:00,16.0,13.0,-100.00,NW,325,5.0,10.0,89,0.00,,,0.18,0.000000,,2013-03-03 06:42:00,
2013-03-03 01:52:00,16.0,13.0,-100.00,NW,325,5.0,10.0,89,0.00,,,0.18,0.000000,,2013-03-03 06:52:00,
2013-03-03 02:01:00,16.0,13.0,-100.00,NW,325,5.0,10.0,89,0.00,,,0.18,0.000000,,2013-03-03 07:01:00,
2013-03-03 02:32:00,16.0,13.0,-100.00,NW,326,5.0,13.0,88,0.00,,,0.18,0.000000,,2013-03-03 07:32:00,
2013-03-03 02:42:00,16.0,13.0,-100.00,NW,326,5.0,13.0,88,0.00,,,0.18,0.000000,,2013-03-03 07:42:00,
2013-03-03 02:52:00,16.0,13.0,-100.00,NW,326,5.0,13.0,88,0.00,,,0.18,0.000000,,2013-03-03 07:52:00,
2013-03-03 03:01:00,16.0,13.0,-100.00,NW,326,5.0,13.0,88,0.00,,,0.18,0.000000,,2013-03-03 08:01:00,
2013-03-03 03:32:00,15.0,12.0,-100.00,NNW,327,5.0,9.0,88,0.00,,,0.18,0.000000,,2013-03-03 08:32:00,
2013-03-03 03:42:00,15.0,12.0,-100.00,NNW,327,5.0,9.0,88,0.00,,,0.18,0.000000,,2013-03-03 08:42:00,
2013-03-03 03:54:00,15.0,12.0,-100.00,NNW,327,5.0,9.0,88,0.00,,,0.18,0.000000,,2013-03-03 08:54:00,
2013-03-03 04:02:00,15.0,12.0,-100.00,NNW,327,5.0,9.0,88,0.00,,,0.18,0.000000,,2013-03-03 09:02:00,
2013-03-03 04:32:00,15.0,12.0,-100.00,NNW,334,6.0,10.0,87,0.00,,,0.18,0.000000,,2013-03-03 09:32:00,
2013-03-03 04:42:00,15.0,12.0,-100.00,NNW,334,6.0,10.0,87,0.00,,,0.18,0.000000,,2013-03-03 09:42:00,
2013-03-03 04:52:00,15.0,12.0,-100.00,NNW,334,6.0,10.0,87,0.00,,,0.18,0.000000,,2013-03-03 09:52:00,
2013-03-03 05:01:00,15.0,12.0,-100.00,NNW,334,6.0,10.0,87,0.00,,,0.18,0.000000,,2013-03-03 10:01:00,
2013-03-03 05:32:00,15.0,12.0,-100.00,NW,319,5.0,10.0,87,0.00,,,0.18,0.000000,,2013-03-03 10:32:00,
2013-03-03 05:42:00,15.0,12.0,-100.00,NW,319,5.0,10.0,87,0.00,,,0.18,0.000000,,2013-03-03 10:42:00,
2013-03-03 05:52:00,15.0,12.0,-100.00,NW,319,5.0,10.0,87,0.00,,,0.18,0.000000,,2013-03-03 10:52:00,
2013-03-03 06:01:00,15.0,12.0,-100.00,NW,319,5.0,10.0,87,0.00,,,0.18,0.000000,,2013-03-03 11:01:00,
2013-03-03 06:32:00,14.0,11.0,-100.00,NW,322,5.0,8.0,87,0.00,,,0.18,0.000000,,2013-03-03 11:32:00,
2013-03-03 06:42:00,14.0,11.0,-100.00,NW,322,5.0,8.0,87,0.00,,,0.18,0.000000,,2013-03-03 11:42:00,
2013-03-03 06:53:00,14.0,11.0,-100.00,NW,322,5.0,8.0,87,0.00,,,0.18,0.000000,,2013-03-03 11:53:00,
2013-03-03 07:02:00,14.0,11.0,-100.00,NW,322,5.0,8.0,87,0.00,,,0.18,0.000000,,2013-03-03 12:02:00,
2013-03-03 07:32:00,14.0,11.0,-100.00,NNW,341,5.0,9.0,87,0.00,,,0.18,1.000000,,2013-03-03 12:32:00,
2013-03-03 07:43:00,14.0,11.0,-100.00,NNW,341,5.0,9.0,87,0.00,,,0.18,1.000000,,2013-03-03 12:43:00,
2013-03-03 07:53:00,14.0,11.0,-100.00,NNW,341,5.0,9.0,87,0.00,,,0.18,1.000000,,2013-03-03 12:53:00,
2013-03-03 08:02:00,14.0,11.0,-100.00,NNW,341,5.0,9.0,87,0.00,,,0.18,1.000000,,2013-03-03 13:02:00,
2013-03-03 08:32:00,15.0,11.0,-100.00,NW,326,6.0,9.0,85,0.00,,,0.18,51.000000,,2013-03-03 13:32:00,
2013-03-03 08:42:00,15.0,11.0,-100.00,NW,326,6.0,9.0,85,0.00,,,0.18,51.000000,,2013-03-03 13:42:00,
2013-03-03 08:52:00,15.0,11.0,-100.00,NW,326,6.0,9.0,85,0.00,,,0.18,51.000000,,2013-03-03 13:52:00,
2013-03-03 09:02:00,15.0,11.0,-100.00,NW,326,6.0,9.0,85,0.00,,,0.18,51.000000,,2013-03-03 14:02:00,
2013-03-03 09:32:00,18.0,14.0,-100.00,NNW,330,6.0,10.0,83,0.00,,,0.18,199.000000,,2013-03-03 14:32:00,
2013-03-03 09:42:00,18.0,14.0,-100.00,NNW,330,6.0,10.0,83,0.00,,,0.18,199.000000,,2013-03-03 14:42:00,
2013-03-03 09:52:00,18.0,14.0,-100.00,NNW,330,6.0,10.0,83,0.00,,,0.18,199.000000,,2013-03-03 14:52:00,
2013-03-03 10:02:00,18.0,14.0,-100.00,NNW,330,6.0,10.0,83,0.00,,,0.18,199.000000,,2013-03-03 15:02:00,
2013-03-03 10:32:00,21.0,14.0,-100.00,NNW,329,6.0,12.0,74,0.00,,,0.18,492.000000,,2013-03-03 15:32:00,
2013-03-03 10:42:00,21.0,14.0,-100.00,NNW,329,6.0,12.0,74,0.00,,,0.18,492.000000,,2013-03-03 15:42:00,
2013-03-03 10:52:00,21.0,14.0,-100.00,NNW,329,6.0,12.0,74,0.00,,,0.18,492.000000,,2013-03-03 15:52:00,
2013-03-03 11:02:00,21.0,14.0,-100.00,NNW,329,6.0,12.0,74,0.00,,,0.18,492.000000,,2013-03-03 16:02:00,
2013-03-03 11:32:00,26.0,14.0,-100.00,NW,323,4.0,10.0,61,0.00,,,0.18,672.000000,,2013-03-03 16:32:00,
2013-03-03 11:42:00,26.0,14.0,-100.00,NW,323,4.0,10.0,61,0.00,,,0.18,672.000000,,2013-03-03 16:42:00,
2013-03-03 11:52:00,26.0,14.0,-100.00,NW,323,4.0,10.0,61,0.00,,,0.18,672.000000,,2013-03-03 16:52:00,
2013-03-03 12:01:00,26.0,14.0,-100.00,NW,323,4.0,10.0,61,0.00,,,0.18,672.000000,,2013-03-03 17:01:00,
2013-03-03 12:32:00,28.0,14.0,-100.00,NW,304,4.0,10.0,56,0.00,,,0.08,797.000000,,2013-03-03 17:32:00,
2013-03-03 12:42:00,28.0,14.0,-100.00,NW,304,4.0,10.0,56,0.00,,,0.08,797.000000,,2013-03-03 17:42:00,
2013-03-03 12:52:00,28.0,14.0,-100.00,NW,304,4.0,10.0,56,0.00,,,0.08,797.000000,,2013-03-03 17:52:00,
2013-03-03 13:02:00,28.0,14.0,-100.00,NW,304,4.0,10.0,56,0.00,,,0.08,797.000000,,2013-03-03 18:02:00,
2013-03-03 13:32:00,29.0,14.0,-100.00,NW,318,5.0,11.0,54,0.00,,,0.03,866.000000,,2013-03-03 18:32:00,
2013-03-03 13:42:00,29.0,14.0,-100.00,NW,318,5.0,11.0,54,0.00,,,0.03,866.000000,,2013-03-03 18:42:00,
2013-03-03 13:53:00,29.0,14.0,-100.00,NW,318,5.0,11.0,54,0.00,,,0.03,866.000000,,2013-03-03 18:53:00,
2013-03-03 14:02:00,29.0,14.0,-100.00,NW,318,5.0,11.0,54,0.00,,,0.03,866.000000,,2013-03-03 19:02:00,
2013-03-03 14:32:00,30.0,15.0,-100.00,WNW,286,4.0,10.0,54,0.00,,,0.01,856.000000,,2013-03-03 19:32:00,
2013-03-03 14:42:00,30.0,15.0,-100.00,WNW,286,4.0,10.0,54,0.00,,,0.01,856.000000,,2013-03-03 19:42:00,
2013-03-03 14:52:00,30.0,15.0,-100.00,WNW,286,4.0,10.0,54,0.00,,,0.01,856.000000,,2013-03-03 19:52:00,
2013-03-03 15:02:00,30.0,15.0,-100.00,WNW,286,4.0,10.0,54,0.00,,,0.01,856.000000,,2013-03-03 20:02:00,
2013-03-03 15:32:00,30.0,15.0,-100.00,WNW,303,5.0,11.0,54,0.00,,,0.00,772.000000,,2013-03-03 20:32:00,
2013-03-03 15:43:00,30.0,15.0,-100.00,WNW,303,5.0,11.0,54,0.00,,,0.00,772.000000,,2013-03-03 20:43:00,
2013-03-03 15:53:00,30.0,15.0,-100.00,WNW,303,5.0,11.0,54,0.00,,,0.00,772.000000,,2013-03-03 20:53:00,
2013-03-03 16:02:00,30.0,15.0,-100.00,WNW,303,5.0,11.0,54,0.00,,,0.00,772.000000,,2013-03-03 21:02:00,
2013-03-03 16:32:00,28.0,14.0,-100.00,NW,318,6.0,12.0,56,0.00,,,0.00,629.000000,,2013-03-03 21:32:00,
2013-03-03 16:42:00,28.0,14.0,-100.00,NW,318,6.0,12.0,56,0.00,,,0.00,629.000000,,2013-03-03 21:42:00,
2013-03-03 16:52:00,28.0,14.0,-100.00,NW,318,6.0,12.0,56,0.00,,,0.00,629.000000,,2013-03-03 21:52:00,
2013-03-03 17:02:00,28.0,14.0,-100.00,NW,318,6.0,12.0,56,0.00,,,0.00,629.000000,,2013-03-03 22:02:00,
2013-03-03 17:32:00,24.0,12.0,-100.00,NW,324,7.0,14.0,59,0.00,,,0.00,428.000000,,2013-03-03 22:32:00,
2013-03-03 17:42:00,24.0,12.0,-100.00,NW,324,7.0,14.0,59,0.00,,,0.00,428.000000,,2013-03-03 22:42:00,
2013-03-03 17:52:00,24.0,12.0,-100.00,NW,324,7.0,14.0,59,0.00,,,0.00,428.000000,,2013-03-03 22:52:00,
2013-03-03 18:01:00,24.0,12.0,-100.00,NW,324,7.0,14.0,59,0.00,,,0.00,428.000000,,2013-03-03 23:01:00,
2013-03-03 18:32:00,20.0,11.0,-100.00,NW,308,6.0,13.0,66,0.00,,,0.00,99.000000,,2013-03-03 23:32:00,
2013-03-03 18:42:00,20.0,11.0,-100.00,NW,308,6.0,13.0,66,0.00,,,0.00,99.000000,,2013-03-03 23:42:00,
2013-03-03 18:52:00,20.0,11.0,-100.00,NW,308,6.0,13.0,66,0.00,,,0.00,99.000000,,2013-03-03 23:52:00,
2013-03-03 19:02:00,20.0,11.0,-100.00,NW,308,6.0,13.0,66,0.00,,,0.00,99.000000,,2013-03-04 00:02:00,
2013-03-03 19:32:00,17.0,10.0,-100.00,NW,313,7.0,13.0,74,0.00,,,0.00,5.000000,,2013-03-04 00:32:00,
2013-03-03 19:42:00,17.0,10.0,-100.00,NW,313,7.0,13.0,74,0.00,,,0.00,5.000000,,2013-03-04 00:42:00,
2013-03-03 19:52:00,17.0,10.0,-100.00,NW,313,7.0,13.0,74,0.00,,,0.00,5.000000,,2013-03-04 00:52:00,
2013-03-03 20:01:00,17.0,10.0,-100.00,NW,313,7.0,13.0,74,0.00,,,0.00,5.000000,,2013-03-04 01:01:00,
2013-03-03 20:32:00,17.0,11.0,-100.00,NW,323,7.0,12.0,78,0.00,,,0.00,0.000000,,2013-03-04 01:32:00,
2013-03-03 20:42:00,17.0,11.0,-100.00,NW,323,7.0,12.0,78,0.00,,,0.00,0.000000,,2013-03-04 01:42:00,
2013-03-03 20:52:00,17.0,11.0,-100.00,NW,323,7.0,12.0,78,0.00,,,0.00,0.000000,,2013-03-04 01:52:00,
2013-03-03 21:01:00,17.0,11.0,-100.00,NW,323,7.0,12.0,78,0.00,,,0.00,0.000000,,2013-03-04 02:01:00,
2013-03-03 21:32:00,16.0,11.0,-100.00,NW,325,7.0,11.0,79,0.00,,,0.00,0.000000,,2013-03-04 02:32:00,
2013-03-03 21:42:00,16.0,11.0,-100.00,NW,325,7.0,11.0,79,0.00,,,0.00,0.000000,,2013-03-04 02:42:00,
2013-03-03 21:53:00,16.0,11.0,-100.00,NW,325,7.0,11.0,79,0.00,,,0.00,0.000000,,2013-03-04 02:53:00,
2013-03-03 22:02:00,16.0,11.0,-100.00,NW,325,7.0,11.0,79,0.00,,,0.00,0.000000,,2013-03-04 03:02:00,
2013-03-03 22:32:00,16.0,11.0,-100.00,NW,324,7.0,13.0,80,0.00,,,0.00,0.000000,,2013-03-04 03:32:00,
2013-03-03 22:42:00,16.0,11.0,-100.00,NW,324,7.0,13.0,80,0.00,,,0.00,0.000000,,2013-03-04 03:42:00,
2013-03-03 22:53:00,16.0,11.0,-100.00,NW,324,7.0,13.0,80,0.00,,,0.00,0.000000,,2013-03-04 03:53:00,
2013-03-03 23:01:00,16.0,11.0,-100.00,NW,324,7.0,13.0,80,0.00,,,0.00,0.000000,,2013-03-04 04:01:00,
2013-03-03 23:32:00,15.0,10.0,-100.00,NW,325,7.0,14.0,81,0.00,,,0.00,0.000000,,2013-03-04 04:32:00,
2013-03-03 23:42:00,15.0,10.0,-100.00,NW,325,7.0,14.0,81,0.00,,,0.00,0.000000,,2013-03-04 04:42:00,
2013-03-03 23:52:00,15.0,10.0,-100.00,NW,325,7.0,14.0,81,0.00,,,0.00,0.000000,,2013-03-04 04:52:00,